Preview of NWS' New Version of Forecast
This preview is not operational and should not be used for support decisions.

Regional Weather Roundup (RWR)

Issued by National Weather Service (NWS)

                            
000
ASUS45 KCYS 210810
RWRWY 

WYOMING REGIONAL WEATHER ROUNDUP
NATIONAL WEATHER SERVICE CHEYENNE WY
200 AM MDT WED AUG 21 2019

NOTE:  "FAIR" INDICATES FEW OR NO CLOUDS BELOW 12,000 FEET
WITH NO SIGNIFICANT WEATHER AND/OR OBSTRUCTIONS TO VISIBILITY.

WYZ001-210900-
YELLOWSTONE NATIONAL PARK
  
CITY           SKY/WX    TMP DP  RH WIND       PRES   REMARKS
LK YELLOWSTONE   N/A     46  38  73 CALM      30.37S                  
W YELLOWSTONE  NOT AVBL                                               

$$
WYZ002>013-054>058-071-098>099-210900-
NORTHERN WYOMING
  
CITY           SKY/WX    TMP DP  RH WIND       PRES   REMARKS
JACKSON        FAIR      53  37  54 NW5       30.24S                  
CODY           FAIR      63  51  65 CALM      30.20S                  
GREYBULL       FAIR      71  52  50 NW12      30.09S                  
WORLAND        FAIR      64  54  69 MISG      30.10R                  
SHERIDAN       FAIR      62  53  72 SW6       30.08F                  
BUFFALO        FAIR      63  52  67 CALM      30.16S                  
GILLETTE       FAIR      65  55  70 E3        30.14R                  
HULETT         FAIR      59  54  82 N5        30.17                   
NEWCASTLE      FAIR      70  48  46 E10G16    30.11                   

$$
WYZ014>020-022>026-101>103-210900-
CENTRAL WYOMING
  
CITY           SKY/WX    TMP DP  RH WIND       PRES   REMARKS
BIG PINEY      FAIR      49  22  34 N6        30.26F                  
PINEDALE       FAIR      45  32  61 NW3       30.27                   
DUBOIS         FAIR      50  32  50 NW10      30.31                   
LANDER         FAIR      66  50  56 W9        30.20S                  
RIVERTON       FAIR      68  50  52 N5        30.18R                  
CASPER         FAIR      56  48  74 N6        30.17S                  
DOUGLAS        FAIR      60  52  74 E8        30.16R                  

$$
WYZ021-027>030-104>119-210900-
SOUTHERN WYOMING
  
CITY           SKY/WX    TMP DP  RH WIND       PRES   REMARKS
EVANSTON       FAIR      58  21  24 SE9       30.26F                  
KEMMERER       FAIR      55  27  33 NW9       30.28                   
ROCK SPRINGS   FAIR      62  22  21 NE3       30.23R                  
DIXON          FAIR      55  23  28 S17       30.24R                  
RAWLINS        FAIR      58  49  72 NE13      30.24S                  
SARATOGA       FAIR      57  37  47 SE8       30.25R                  
LARAMIE        FAIR      54  48  80 SW5       30.29F                  
CHEYENNE       FAIR      57  53  86 W8        30.24F                  
TORRINGTON     FAIR      62  57  83 SW6       30.11S                  
PINE BLUFFS    PTSUNNY   55  55 100 N6        30.21F                  

$$